Skip Page Navigation
NASA JPL Caltech
NASA Logo - Jet Propulsion Laboratory + View the NASA Portal
+ Center for Near-Earth Object Studies
JPL Home Earth Solar System Stars & Galaxies Technology
JPL Solar System Dynamics
BODIES ORBITS EPHEMERIDES TOOLS PHYSICAL DATA DISCOVERY FAQ SITE MAP
JPL Small-Body Database Browser
Search: [ help ]  
266260 (2006 YM36)
Classification: Main-belt Asteroid          SPK-ID: 2266260
Ephemeris | Orbit Diagram | Orbital Elements | Mission Design | Physical Parameters | Discovery Circumstances | Close-Approach Data ]

[ show orbit diagram ]
Orbital Elements at Epoch 2459000.5 (2020-May-31.0) TDB
Reference: JPL 12 (heliocentric ecliptic J2000)
 Element Value Uncertainty (1-sigma)   Units 
e .03153053048563147 5.0403e-08  
a 2.526937542205153 2.4304e-08 au
q 2.447261860995367 1.2041e-07 au
i 2.580339477835872 5.2565e-06 deg
node 12.14034226907168 0.00011751 deg
peri 87.52176635840931 0.00014812 deg
M 132.4342348168655 9.3106e-05 deg
tp 2458460.755837216124
(2018-Dec-08.25583722)
0.00037608 TDB
period 1467.202939412841
4.02
2.1167e-05
5.795e-08
d
yr
n .245364830133225 3.5398e-09 deg/d
Q 2.60661322341494 2.507e-08 au
  Orbit Determination Parameters
   # obs. used (total)      166  
   data-arc span      5384 days (14.74 yr)  
   first obs. used      2005-08-29  
   last obs. used      2020-05-26  
   planetary ephem.      DE431  
   SB-pert. ephem.      SB431-N16  
   condition code      0  
   norm. resid. RMS      .53939  
   source      ORB  
   producer      Otto Matic  
   solution date      2020-Nov-11 22:26:47  

Additional Information
 Earth MOID = 1.4658 au 
 Jupiter MOID = 2.42042 au 
 T_jup = 3.451 
[ show covariance matrix ]

Ephemeris | Orbit Diagram | Orbital Elements | Mission Design | Physical Parameters | Discovery Circumstances | Close-Approach Data ]

Physical Parameter Table
Parameter Symbol Value Units Sigma Reference Notes
absolute magnitude H 17.3   n/a MPO423024  

266260 (2006 YM36)          Discovered 2006-Dec-21 by Spacewatch at Kitt Peak
Reference: 20110218/Numbers.arcLast Updated: 2011-02-22

[ hide close-approach data ]
Close-Approach Data   ...sorted by Date/Time (TDB)
Date/Time (TDB) Time Uncertainty
(days_HH:MM)
Body Nominal Distance (au) Minimum Distance (au) Maximum Distance (au) V-relative (km/s) V-infinity (km/s) JD (TDB) Time Uncertainty (minutes) Semi-major axis (km) Semi-minor axis (km) range-LOV angle (deg) N-sigma BP Orbit Ref. Reference Modified
2069-Nov-30 11:28 00:16 Psych 0.0360010348900842 0.0359692906835818 0.0360327796627462 2.41686355373283 2.41686341467801 2477080.977890282 16.4814250306729 1595.92228460723 94.3550770734566 8.22247200530947 8797.33961300919 T 12 CATAB v2.0f-lin.ifort 2020-Nov-11 22:26:47 2020-Nov-11 22:26
Ephemeris | Orbit Diagram | Orbital Elements | Mission Design | Physical Parameters | Discovery Circumstances | Close-Approach Data ]
ABOUT SSD CREDITS/AWARDS PRIVACY/COPYRIGHT GLOSSARY LINKS
FirstGov 2021-Jan-20 01:49 UT
(server date/time)  
NASA Home Page
Site Manager:   Ryan S. Park
Webmaster  Alan B. Chamberlin